STARLINK-5536, 57062

Orbit data source: Space-Track

STARLINK-5536, 57062 is a payload satellite owned by SpaceX/Seattle (US) in LEO that was launched on Thu, 22 Jun 2023 UTC via an FALCON 9 launch vehicle from the Air Force Western Test Range (AFWTR). Payload-class satellites include a variety of spacecraft equipped with specific instruments for various scientific and technological missions. These include communications satellites like Starlink; space stations such as the ISS; scientific satellites like the Hubble; Earth observation satellites from companies like Planet Labs, Umbra, and HawkEye 360; GPS; miniature CubeSats for education and research; and military/defense satellites.

Loading next visibility...
Identifier
57062, 2023-088Q
Orbit
LEO
Country
Flag of USUS
Related business
Manufacturer
SpaceX/Seattle
Mission
Operational Commercial Communications
Bus & Motor
STARLINK, Unknown motor
Mass
305 kg wet, ~290 kg dry
Launch date (UTC)
Icon of a cake. It is the launch day of the satellite!2023-06-22 (3 years ago)
Launch vehicle
FALCON 9
Launch site
Air Force Western Test Range (AFWTR)
Object type
Payload
Rocket body
Debris
Shape & HBR
Box + 1 Pan, 10.1 m
Radar Cross Section
11.087 m², Large (>1 m²)

Expand to show TLE details & history
Last TLE update: 3 days ago

TLE from 3 days ago
0 STARLINK-5536
1 57062U 23088Q   26170.25812940  .00000026  00000-0  10479-4 0  9991
2 57062  43.0045 242.5256 0001935 289.4602  70.6041 15.27580623166036
Epoch: 2026-06-19T06:11Z
TLE epoch observation values (Epoch: 2026-06-19T06:11:42.380Z)
Latitude
0.00003°
Longitude
-117.89064°
Altitude
482.383 km
Speed
7.626 km/s
True Right ascension
16h 10m 06s
True Declination
0° 00' 00"
Sunlit
Object was in full shadow at epoch
Visualization orbit readout
Latitude
Unknown
Longitude
Unknown
Altitude
Unknown
Speed
Unknown
Apparent Right ascension
Unknown
Apparent Declination
Unknown
Sunlit
N/A
Visualization observer readout
Local Sidereal Time
21:32:34
Azimuth
Unknown
Elevation
Unknown
Doppler factor
Unknown
Orbital elements
Apogee altitude
486.32 km
Perigee altitude
483.664 km
Semi-major axis
6,863.129 km
Eccentricity
0.00019
Inclination
43.0045°
RAAN
242.5256°
Arg. of periapsis
289.4602°
True anomaly
70.62502°
Mean anomaly
70.6041°
Eccentric anomaly
70.61456°
Mean motion
3.81733 °/min
Orbital period
94.31 mins
BSTAR
0.000010479
Loading maneuver chart data...
Computing Atmospheric mass density...
Loading historical data...
Loading historical data...
Loading historical data...
Loading historical data...
Loading historical data...
Loading historical data...
Loading historical data...

Documentation

Showing up to 5 results
|